Gatesville, TX

7:47 PM CDT on May 23, 2018 (GMT -0500)
Gatesville

Weather History for KGOP - December, 2013

Change the Weather History Date:

Wednesday, December 18, 2013

  Actual Average (KHLR) Record (KHLR)
Temperature  
Mean Temperature 51 °F -  
Max Temperature 69 °F 57 °F 86 °F (2012)
Min Temperature 33 °F 37 °F 24 °F (1996)
Degree Days  
Heating Degree Days 14    
Growing Degree Days 1 (Base 50)    
Moisture  
Dew Point 42 °F    
Average Humidity 70    
Maximum Humidity 93    
Minimum Humidity 46    
Precipitation  
Precipitation 0.00 in - - ()
Sea Level Pressure  
Sea Level Pressure 30.19 in    
Wind  
Wind Speed 4 mph (South)    
Max Wind Speed 14 mph    
Max Gust Speed 21 mph    
Visibility 10 miles    
Events      
Averages and records for this station are not official NWS values.
T = Trace of Precipitation, MM = Missing Value Source: NWS Daily Summary

Daily Weather History Graph

Daily Weather History Graph

Search for Another Location

Airport or City:

Astronomy

Dec. 18, 2013 Rise Set
Actual Time 7:24 AM CST 5:31 PM CST
Civil Twilight 6:57 AM CST 5:58 PM CST
Nautical Twilight 6:27 AM CST 6:28 PM CST
Astronomical Twilight 5:57 AM CST 6:58 PM CST
Moon 6:58 PM CST (12/18) 8:10 AM CST (12/18)
Length of Visible Light 11h 00m
Length of Day
10h 06m
Full, 98% of the Moon is Illuminated
Dec 18
Full
Dec 25
Last Quarter
Jan 1
New
Jan 7
First Quarter
Jan 15
Full

Hourly Weather History & Observations

Time (CST) Temp. Dew Point Humidity Pressure Visibility Wind Dir Wind Speed Gust Speed Precip Events Conditions
12:15 AM 42.8 °F 35.6 °F 76% 30.30 in 10.0 mi Calm Calm - N/A   Clear
12:35 AM 42.8 °F 35.6 °F 76% 30.29 in 1.8 mi Calm Calm - N/A   Haze
12:55 AM 39.2 °F 33.8 °F 81% 30.29 in 9.0 mi Calm Calm - N/A   Clear
1:15 AM 39.2 °F 33.8 °F 81% 30.28 in 10.0 mi Calm Calm - N/A   Clear
1:35 AM 41.0 °F 33.8 °F 76% 30.28 in 10.0 mi Calm Calm - N/A   Clear
1:55 AM 37.4 °F 33.8 °F 87% 30.27 in 10.0 mi Calm Calm - N/A   Clear
2:15 AM 37.4 °F 33.8 °F 87% 30.27 in 10.0 mi Calm Calm - N/A   Clear
2:35 AM 37.4 °F 33.8 °F 87% 30.27 in 10.0 mi Calm Calm - N/A   Clear
2:55 AM 37.4 °F 33.8 °F 87% 30.27 in 10.0 mi Calm Calm - N/A   Clear
3:15 AM 37.4 °F 33.8 °F 87% 30.27 in 10.0 mi Calm Calm - N/A   Clear
3:35 AM 37.4 °F 33.8 °F 87% 30.27 in 10.0 mi Calm Calm - N/A   Clear
3:55 AM 35.6 °F 33.8 °F 93% 30.27 in 10.0 mi Calm Calm - N/A   Clear
4:15 AM 35.6 °F 33.8 °F 93% 30.27 in 10.0 mi Calm Calm - N/A   Clear
4:35 AM 35.6 °F 33.8 °F 93% 30.27 in 10.0 mi Calm Calm - N/A   Clear
4:55 AM 37.4 °F 32.0 °F 81% 30.27 in 10.0 mi Calm Calm - N/A   Clear
5:15 AM 35.6 °F 32.0 °F 87% 30.27 in 10.0 mi Calm Calm - N/A   Clear
5:35 AM 35.6 °F 32.0 °F 87% 30.26 in 9.0 mi Calm Calm - N/A   Clear
5:55 AM 35.6 °F 32.0 °F 87% 30.27 in 7.0 mi Calm Calm - N/A   Clear
6:15 AM 35.6 °F 33.8 °F 93% 30.27 in 5.0 mi Calm Calm - N/A   Clear
6:35 AM 35.6 °F 32.0 °F 87% 30.27 in 7.0 mi Calm Calm - N/A   Clear
6:55 AM 35.6 °F 32.0 °F 87% 30.27 in 9.0 mi Calm Calm - N/A   Clear
7:15 AM 35.6 °F 32.0 °F 87% 30.27 in 9.0 mi Calm Calm - N/A   Clear
7:35 AM 33.8 °F 32.0 °F 93% 30.27 in 8.0 mi Calm Calm - N/A   Clear
7:55 AM 35.6 °F 32.0 °F 87% 30.27 in 8.0 mi Calm Calm - N/A   Clear
8:15 AM 37.4 °F 33.8 °F 87% 30.27 in 8.0 mi Calm Calm - N/A   Clear
8:35 AM 41.0 °F 35.6 °F 81% 30.28 in 8.0 mi Calm Calm - N/A   Clear
8:55 AM 44.6 °F 37.4 °F 76% 30.28 in 9.0 mi Calm Calm - N/A   Clear
9:15 AM 48.2 °F 41.0 °F 76% 30.28 in 8.0 mi Calm Calm - N/A   Clear
9:35 AM 53.6 °F 41.0 °F 62% 30.28 in 8.0 mi Calm Calm - N/A   Clear
9:55 AM 57.2 °F 44.6 °F 63% 30.28 in 9.0 mi Calm Calm - N/A   Clear
10:15 AM 60.8 °F 48.2 °F 63% 30.28 in 10.0 mi WSW 8.1 mph - N/A   Clear
10:35 AM 60.8 °F 48.2 °F 63% 30.28 in 10.0 mi SW 9.2 mph - N/A   Clear
10:55 AM 62.6 °F 48.2 °F 59% 30.27 in 10.0 mi SW 12.7 mph - N/A   Clear
11:15 AM 62.6 °F 48.2 °F 59% 30.26 in 10.0 mi SSW 12.7 mph 17.3 mph N/A   Clear
11:35 AM 64.4 °F 48.2 °F 56% 30.25 in 10.0 mi SSW 11.5 mph - N/A   Clear
11:55 AM 64.4 °F 48.2 °F 56% 30.24 in 10.0 mi SW 12.7 mph - N/A   Clear
12:15 PM 66.2 °F 48.2 °F 52% 30.22 in 10.0 mi SSW 12.7 mph - N/A   Clear
12:35 PM 66.2 °F 46.4 °F 49% 30.20 in 10.0 mi SW 11.5 mph - N/A   Clear
12:55 PM 66.2 °F 46.4 °F 49% 30.19 in 10.0 mi SW 13.8 mph 20.7 mph N/A   Clear
1:15 PM 68.0 °F 48.2 °F 49% 30.18 in 10.0 mi SSW 10.4 mph - N/A   Clear
1:35 PM 68.0 °F 46.4 °F 46% 30.16 in 10.0 mi SSW 10.4 mph - N/A   Clear
1:55 PM 68.0 °F 46.4 °F 46% 30.15 in 10.0 mi South 11.5 mph - N/A   Clear
2:15 PM 68.0 °F 48.2 °F 49% 30.14 in 10.0 mi South 12.7 mph - N/A   Clear
2:35 PM 68.0 °F 46.4 °F 46% 30.13 in 10.0 mi South 10.4 mph - N/A   Clear
2:55 PM 69.8 °F 48.2 °F 46% 30.12 in 10.0 mi South 11.5 mph 17.3 mph N/A   Clear
3:15 PM 68.0 °F 48.2 °F 49% 30.11 in 10.0 mi South 11.5 mph - N/A   Clear
3:35 PM 68.0 °F 48.2 °F 49% 30.11 in 10.0 mi South 12.7 mph 16.1 mph N/A   Clear
3:55 PM 68.0 °F 48.2 °F 49% 30.10 in 10.0 mi South 13.8 mph 18.4 mph N/A   Clear
4:15 PM 68.0 °F 46.4 °F 46% 30.10 in 10.0 mi South 9.2 mph 17.3 mph N/A   Clear
4:35 PM 66.2 °F 46.4 °F 49% 30.10 in 10.0 mi South 9.2 mph 16.1 mph N/A   Clear
4:55 PM 66.2 °F 46.4 °F 49% 30.09 in 10.0 mi South 8.1 mph - N/A   Clear
5:15 PM 64.4 °F 48.2 °F 56% 30.09 in 10.0 mi SSE 10.4 mph - N/A   Clear
5:35 PM 62.6 °F 48.2 °F 59% 30.09 in 10.0 mi South 9.2 mph - N/A   Clear
5:55 PM 60.8 °F 48.2 °F 63% 30.09 in 10.0 mi SSE 6.9 mph - N/A   Clear
6:15 PM 60.8 °F 48.2 °F 63% 30.09 in 10.0 mi SSE 3.5 mph - N/A   Clear
6:35 PM 57.2 °F 48.2 °F 72% 30.09 in 10.0 mi SSE 3.5 mph - N/A   Clear
6:55 PM 57.2 °F 46.4 °F 67% 30.09 in 10.0 mi SSE 5.8 mph - N/A   Clear
7:15 PM 57.2 °F 46.4 °F 67% 30.09 in 10.0 mi South 8.1 mph - N/A   Clear
7:35 PM 57.2 °F 48.2 °F 72% 30.08 in 10.0 mi South 8.1 mph - N/A   Clear
7:55 PM 57.2 °F 46.4 °F 67% 30.08 in 10.0 mi SSE 6.9 mph - N/A   Clear
8:15 PM 55.4 °F 46.4 °F 72% 30.08 in 10.0 mi SSE 6.9 mph - N/A   Clear
8:35 PM 55.4 °F 46.4 °F 72% 30.08 in 10.0 mi SSE 5.8 mph - N/A   Clear
8:55 PM 55.4 °F 46.4 °F 72% 30.08 in 10.0 mi SE 5.8 mph - N/A   Clear
9:15 PM 55.4 °F 46.4 °F 72% 30.08 in 10.0 mi SSE 6.9 mph - N/A   Clear
9:35 PM 55.4 °F 46.4 °F 72% 30.08 in 10.0 mi SSE 10.4 mph 16.1 mph N/A   Clear
9:55 PM 55.4 °F 48.2 °F 77% 30.07 in 10.0 mi SSE 11.5 mph - N/A   Clear
10:15 PM 55.4 °F 48.2 °F 77% 30.07 in 10.0 mi South 10.4 mph - N/A   Clear
10:35 PM 55.4 °F 48.2 °F 77% 30.07 in 10.0 mi South 11.5 mph - N/A   Clear
10:55 PM 55.4 °F 48.2 °F 77% 30.07 in 10.0 mi South 11.5 mph - N/A   Clear
11:15 PM 55.4 °F 48.2 °F 77% 30.07 in 10.0 mi South 12.7 mph - N/A   Clear
11:35 PM 55.4 °F 48.2 °F 77% 30.06 in 10.0 mi South 10.4 mph - N/A   Clear
11:55 PM 55.4 °F 48.2 °F 77% 30.04 in 10.0 mi South 9.2 mph 16.1 mph N/A   Clear